User: anonymous   Login
Location: Oshawa
(43.9000°N, 78.8670°W)
Time: 12:50:14
(UTC-04:00)
Language:

Cosmos 1821 Rocket - Orbit

View from above orbital plane
View from above orbital plane
View from above satellite
View from above satellite

Ground track
Ground track

The orbit data is extracted from the following two-line orbital elements,

1 17526U 87017B   16238.65205109  .00000028  00000-0  12277-4 0  9995
2 17526  82.8995 261.0590 0041593  64.5310  74.6534 13.76793374465686
Epoch (UTC): 25 August 2016 15:38:57
Eccentricity: 0.0041593
inclination: 82.8995°
perigee height: 944 km
apogee height: 1006 km
right ascension of ascending node: 261.0590°
argument of perigee: 64.5310°
revolutions per day: 13.76793374
mean anomaly at epoch: 74.6534°
orbit number at epoch: 46568

The dashed part of the orbit path shows where the satellite is in the earth's shadow,  

DLR